Wind_Speed
43 42 42 42 42 42 42 42 42 43 43 44 44 44 44 45 45 44 44 45 45 46 46 46 46 46 46 46 46 46 46 46 45 45 44 44 44 43 42 42 41 41 41 41 42 42 42 43 43 42 42 42
42 42 42 42 42 42 42 43 43 43 44 44 45 45 45 45 45 45 46 46 46 47 47 47 46 46 46 46 46 45 45 45 45 44 44 44 44 43 43 43 42 42 42 42 42 43 43 43 43 43 43 43
40 40 40 41 41 42 42 43 43 43 44 44 45 46 46 46 46 46 46 47 47 47 47 47 46 46 45 45 45 45 44 44 44 44 44 44 44 44 44 44 44 44 44 44 44 44 44 44 44 44 44 44
38 38 39 39 40 41 42 42 43 43 43 44 45 45 45 45 45 46 46 46 46 46 46 46 46 45 45 45 44 44 44 44 45 45 45 45 46 45 45 45 45 45 46 46 45 46 46 46 46 46 46 46
38 38 39 39 40 40 41 41 42 42 42 43 43 43 44 44 44 44 45 45 45 45 46 46 46 45 45 45 45 45 45 45 45 46 46 46 46 47 47 47 47 47 47 47 47 47 47 47 47 47 47 47
38 39 40 40 40 41 41 41 42 42 43 43 43 44 44 44 44 45 45 45 45 46 46 46 46 46 46 46 46 46 46 46 46 46 47 47 47 47 48 48 48 48 48 48 48 48 48 48 48 48 48 48
39 40 41 41 41 42 42 43 44 44 45 44 44 45 45 46 46 46 46 47 47 47 47 47 47 47 47 47 47 47 47 47 47 47 47 48 48 48 48 49 49 49 49 50 49 49 49 49 49 49 49 49
40 41 42 42 43 43 44 45 46 46 46 46 46 47 47 48 48 48 48 48 48 48 48 48 48 48 48 48 48 48 48 48 48 48 48 48 48 49 49 49 49 49 50 50 50 50 50 50 50 50 50 50
41 42 43 43 44 45 45 46 47 47 47 47 47 48 48 48 48 49 49 49 49 49 50 50 49 49 49 49 49 49 49 49 49 49 49 49 49 49 50 50 50 50 50 50 50 50 50 50 51 51 51 51
42 43 43 44 44 44 45 46 46 47 47 47 47 48 48 48 48 49 49 49 49 50 50 50 50 50 50 50 50 50 49 49 49 49 50 50 50 50 51 51 51 51 51 51 51 51 51 51 51 52 52 52
42 43 43 44 44 44 45 46 46 46 47 47 48 48 48 49 49 49 49 49 50 50 50 50 50 49 49 49 49 50 50 50 50 50 50 50 51 51 52 52 52 52 52 52 52 52 53 53 53 53 53 53
42 43 43 44 44 44 45 46 46 47 47 48 48 49 49 50 50 50 50 50 50 50 50 50 50 49 49 49 49 49 50 50 50 51 51 51 51 52 52 52 52 52 52 52 53 53 54 54 54 54 54 54
42 43 43 43 43 44 45 45 46 46 47 47 48 49 50 50 50 50 50 50 51 51 51 50 50 49 49 49 49 49 49 50 51 51 51 52 52 52 52 52 52 52 52 53 53 53 54 54 54 54 55 55
42 42 42 42 43 43 44 44 45 45 45 46 47 48 48 48 49 49 50 50 50 51 51 51 51 50 50 50 49 49 49 50 51 51 52 52 53 53 53 53 53 53 53 54 54 54 55 55 55 55 55 55
41 42 42 43 43 44 44 45 45 45 45 45 46 47 47 48 48 48 49 49 50 50 51 51 51 51 51 50 50 50 50 50 51 52 52 53 53 53 54 54 54 54 55 55 55 55 56 56 56 56 56 56
42 43 44 44 44 45 46 46 46 47 47 47 47 48 48 48 48 48 49 49 50 50 51 51 51 51 51 51 51 51 51 52 52 53 53 54 54 54 55 55 55 56 56 56 57 57 57 58 58 58 58 57
44 44 45 46 46 47 47 47 48 48 48 48 49 49 49 49 49 49 49 50 50 51 51 52 52 52 52 52 52 52 53 53 54 54 54 55 55 55 56 56 57 57 57 58 58 58 59 59 59 59 59 59
45 46 47 47 48 48 48 49 49 50 50 50 50 50 50 50 50 50 50 51 51 52 52 53 53 53 53 54 54 54 54 55 55 55 56 56 56 57 57 58 58 58 59 59 60 60 60 60 61 61 61 61
47 48 48 49 49 49 50 50 50 51 51 51 51 51 51 51 51 51 52 52 53 53 54 55 55 55 55 55 55 56 56 56 56 57 57 57 58 58 59 59 59 60 60 61 61 61 61 62 62 62 63 63
49 49 49 50 50 51 51 51 52 52 52 52 53 53 53 53 53 53 54 54 55 55 56 56 57 57 57 57 58 58 58 58 58 58 59 59 60 60 60 61 61 62 62 62 63 63 63 63 63 64 64 65
50 50 51 51 51 52 52 53 53 54 54 54 54 54 55 55 55 56 56 57 57 57 57 58 58 58 58 59 59 60 60 60 61 61 61 62 62 62 63 63 63 64 64 64 64 64 65 65 65 65 66 66
51 51 52 52 53 53 54 54 55 55 55 55 56 57 57 58 58 58 58 59 59 59 59 59 59 59 60 60 61 61 61 62 62 63 63 64 64 64 65 65 65 66 66 66 66 66 66 66 67 67 67 68
51 52 53 53 54 54 55 55 56 56 57 57 58 59 59 59 59 60 60 60 60 60 61 61 61 61 61 62 62 63 63 63 64 64 65 65 66 66 66 66 67 68 68 68 68 68 68 68 68 69 69 69
52 53 53 54 54 55 56 56 57 58 58 58 59 59 60 61 61 61 61 62 62 62 62 63 63 63 63 64 64 64 65 65 66 66 66 67 67 67 67 68 68 68 69 69 69 69 69 69 69 70 70 71
53 53 54 54 55 55 56 57 57 58 58 58 59 60 61 61 61 61 62 62 63 64 64 65 65 65 66 66 66 66 67 67 68 68 68 68 68 68 69 69 69 70 70 70 70 70 70 70 71 71 72 72
53 53 54 54 55 55 56 57 57 58 58 58 59 60 61 61 62 62 63 63 64 65 66 66 66 67 67 68 68 68 69 69 69 69 70 70 70 70 70 71 71 72 71 71 71 71 72 72 72 73 73 73
53 53 54 54 54 55 56 56 57 57 58 58 58 59 60 61 62 63 64 64 65 66 66 66 67 67 67 68 68 68 69 69 69 70 70 70 71 71 71 72 72 72 72 72 72 73 73 73 73 74 74 73
54 54 54 54 54 55 55 56 57 57 57 58 58 59 59 61 62 62 63 64 64 65 65 65 65 66 66 67 67 68 68 68 69 69 69 70 70 71 71 71 72 72 72 72 73 74 74 74 74 74 74 74
56 56 56 56 56 56 57 57 58 58 58 58 59 59 60 61 62 62 63 63 64 64 65 65 65 66 66 67 67 68 68 69 69 70 70 70 71 71 71 71 72 73 73 72 73 74 74 75 75 74 74 75
56 56 57 57 58 58 59 59 59 59 60 60 60 61 61 62 62 63 63 64 64 65 65 65 66 66 66 67 67 68 69 69 70 70 70 71 71 71 72 72 73 73 73 74 74 75 75 76 76 76 76 76
56 57 57 58 58 59 59 60 60 61 61 62 62 63 63 63 63 64 64 64 64 65 65 66 66 66 67 67 68 68 69 69 70 70 71 72 72 72 73 74 74 74 75 76 76 76 77 77 78 78 78 78
Wind_Direction
267 268 268 269 270 270 270 271 271 272 272 273 274 274 274 275 275 274 274 274 275 275 274 274 274 274 274 274 274 274 274 274 273 273 272 271 269 268 267 266 265 264 263 263 262 262 261 261 261 261 261 261
267 268 269 269 270 271 271 271 272 272 272 273 273 273 274 274 274 274 273 273 273 273 273 273 273 273 273 273 273 273 273 272 272 271 271 270 269 268 267 266 265 264 263 263 263 262 262 261 261 261 261 261
268 269 269 270 270 270 270 271 271 271 271 271 272 272 273 273 273 274 274 273 273 273 273 273 273 273 273 273 272 272 271 271 271 270 270 269 268 267 267 266 265 264 264 264 263 263 263 262 262 262 262 261
269 269 269 268 268 268 269 269 269 270 270 270 270 271 272 272 273 273 273 274 274 274 274 274 274 274 273 273 272 272 271 270 270 269 269 268 268 267 266 266 265 264 264 264 263 263 263 263 263 262 262 261
270 270 270 269 269 270 270 270 270 270 270 270 270 271 271 271 271 271 271 272 272 272 272 272 272 272 272 272 272 272 271 271 270 269 269 268 268 267 266 266 265 265 264 264 263 263 263 262 262 262 261 261
270 271 271 271 271 271 271 271 271 270 270 271 271 271 271 271 270 270 270 270 270 271 271 271 271 271 271 271 271 271 271 270 270 269 269 268 267 267 266 265 265 265 264 264 263 263 263 262 262 261 261 260
269 269 270 270 270 270 270 270 270 270 270 270 270 270 270 270 270 270 270 270 271 271 271 271 271 272 271 271 271 270 270 270 269 269 268 267 267 266 265 265 264 264 264 263 263 263 263 262 262 262 261 261
266 267 267 268 268 268 268 269 269 269 270 270 270 270 270 270 270 271 271 271 271 271 271 272 272 272 271 271 271 271 270 270 269 268 268 267 266 265 264 264 263 263 263 263 262 262 262 262 262 261 261 261
264 265 266 266 266 266 267 267 268 269 269 270 270 271 271 271 271 271 272 272 272 272 272 272 272 272 272 271 271 271 271 270 270 269 268 267 266 265 264 264 263 263 262 262 262 261 261 261 261 261 261 260
263 264 264 264 265 266 266 267 267 268 269 270 270 270 271 271 271 271 272 272 272 272 272 272 272 272 272 272 272 271 271 270 270 269 268 268 267 266 265 264 264 263 262 262 262 261 261 261 261 260 260 260
261 262 263 264 265 266 267 267 268 269 269 269 270 270 270 270 270 270 271 271 271 272 272 272 272 272 272 272 271 271 270 270 269 269 268 267 267 266 265 265 264 263 263 262 262 262 261 261 261 261 261 261
261 262 263 264 265 266 267 268 268 269 269 270 270 269 269 270 270 270 270 271 271 271 271 271 271 271 270 270 270 269 269 268 268 268 267 267 266 266 265 265 264 264 264 263 263 263 262 262 262 261 261 261
262 263 264 265 266 267 268 268 269 269 269 270 269 270 270 270 271 271 271 271 271 271 270 270 270 270 269 269 269 268 268 267 267 266 266 266 265 265 265 265 265 264 264 264 264 264 264 263 263 262 262 262
263 264 265 266 267 267 268 269 269 270 270 270 271 271 271 271 271 271 271 270 270 270 270 270 270 269 269 268 268 267 267 267 266 266 265 265 265 264 264 264 264 264 264 264 264 264 264 264 264 263 263 263
265 265 266 267 268 268 269 270 270 271 271 272 272 271 271 271 271 271 270 270 270 270 269 269 269 269 268 268 267 267 266 266 266 265 265 265 265 264 264 264 264 264 264 264 264 264 264 264 264 264 264 264
266 266 267 267 268 269 269 270 271 272 272 272 271 271 271 271 271 271 270 270 269 269 269 268 268 268 268 267 267 266 266 265 265 265 265 265 264 264 264 264 264 264 264 264 264 264 264 264 265 265 265 264
267 267 268 268 268 269 270 270 271 271 271 271 271 271 271 270 270 270 269 269 268 268 268 268 267 267 266 266 266 265 265 265 265 264 264 264 264 264 264 264 264 264 264 264 264 264 264 265 265 265 265 265
268 268 269 269 269 270 270 271 271 271 271 270 270 270 270 270 269 269 268 268 268 267 267 267 266 266 265 265 265 264 264 264 264 264 264 263 263 263 263 263 263 264 264 264 264 264 264 264 265 265 265 265
269 270 270 270 271 271 271 271 271 271 271 270 270 270 269 269 268 268 268 268 267 267 266 266 266 265 265 264 264 264 264 264 264 263 263 263 263 263 263 263 263 263 263 263 263 264 264 264 264 264 264 265
270 271 271 271 272 272 272 272 272 272 271 271 270 270 269 268 268 267 267 266 266 266 266 266 266 265 265 265 264 264 264 264 264 264 264 263 263 263 263 263 263 263 263 263 263 264 264 264 264 264 264 264
271 271 272 272 273 273 273 273 273 272 272 272 271 270 269 268 267 267 266 266 266 266 266 267 267 267 267 266 266 265 265 265 264 264 264 264 264 264 264 264 264 264 264 264 264 264 264 264 264 264 264 264
272 272 273 273 273 273 273 273 272 272 272 272 271 270 269 268 268 267 267 267 267 267 267 268 268 268 268 268 267 267 266 266 265 265 264 264 264 264 264 264 264 264 264 265 265 265 265 265 264 264 264 264
272 272 273 273 273 273 273 272 272 272 272 271 270 270 269 269 269 268 267 267 267 268 268 268 268 268 268 267 267 267 266 266 266 265 265 265 265 265 265 265 265 265 265 265 265 265 265 265 264 264 264 264
272 272 272 273 273 273 272 272 272 272 272 272 271 270 270 269 269 268 268 268 268 268 268 268 268 267 267 267 266 266 266 266 265 265 266 266 266 266 266 266 265 265 265 265 265 265 265 265 265 265 265 265
272 272 272 272 272 272 272 272 272 272 272 272 271 271 270 270 269 269 269 268 268 268 267 267 267 267 266 266 266 266 266 266 266 266 266 266 266 266 266 266 265 265 265 265 265 264 264 264 264 264 264 264
272 272 272 272 272 272 272 272 272 272 271 271 271 271 270 270 269 269 268 268 267 267 267 267 267 267 267 267 267 267 267 267 267 267 267 266 266 266 266 265 265 265 265 265 264 264 264 264 264 264 264 264
271 271 271 271 271 271 271 271 271 271 271 271 271 270 270 269 269 269 269 269 269 269 269 269 269 269 269 269 269 269 269 268 268 268 268 267 267 267 267 266 266 266 266 265 265 265 264 264 264 264 265 265
270 270 270 270 270 270 270 270 270 270 270 270 270 270 270 270 270 270 270 271 271 271 271 270 270 270 270 270 270 270 270 269 269 268 268 268 268 268 267 267 267 267 266 266 266 265 265 265 265 265 265 265
269 269 268 268 268 267 267 267 267 268 268 268 268 269 269 270 270 270 270 270 270 270 270 270 270 270 270 270 270 270 270 269 269 269 269 268 268 268 268 267 267 267 267 267 266 266 266 266 266 266 266 265
268 268 268 267 266 266 265 265 265 266 266 266 266 266 267 267 268 268 269 269 269 269 269 269 269 269 270 270 270 270 270 270 270 270 270 269 269 269 268 268 267 268 268 267 266 267 267 267 266 266 265 265
267 267 266 266 265 265 264 264 264 264 264 264 265 265 265 265 266 267 267 268 268 268 269 269 269 269 269 269 270 270 270 271 271 271 270 270 270 270 269 269 269 269 268 267 267 267 266 266 266 265 265 265
Height
5791 5791 5792 5792 5792 5792 5792 5792 5792 5792 5792 5792 5792 5792 5792 5792 5792 5792 5792 5792 5792 5793 5793 5793 5793 5793 5793 5793 5793 5794 5794 5794 5794 5794 5795 5795 5795 5795 5796 5796 5796 5796 5796 5796 5796 5796 5797 5797 5797 5797 5798 5798
5787 5787 5788 5788 5788 5788 5788 5788 5788 5788 5788 5788 5788 5788 5788 5787 5787 5787 5788 5788 5788 5788 5788 5788 5789 5789 5789 5789 5789 5789 5789 5789 5789 5790 5790 5790 5791 5791 5792 5792 5792 5792 5792 5792 5793 5793 5793 5793 5793 5793 5794 5794
5783 5783 5784 5784 5784 5784 5784 5784 5784 5784 5784 5783 5783 5783 5783 5783 5782 5783 5783 5783 5783 5784 5784 5784 5784 5784 5784 5784 5784 5784 5784 5785 5785 5785 5786 5786 5786 5787 5787 5787 5788 5788 5787 5788 5788 5788 5788 5788 5789 5789 5789 5790
5779 5779 5779 5780 5779 5779 5779 5779 5779 5779 5779 5779 5778 5778 5778 5778 5778 5778 5778 5779 5779 5779 5779 5779 5779 5779 5779 5779 5779 5779 5780 5780 5780 5780 5781 5781 5782 5782 5782 5783 5783 5783 5783 5783 5784 5783 5783 5784 5784 5784 5784 5785
5774 5774 5774 5775 5775 5775 5775 5775 5775 5775 5775 5774 5774 5774 5774 5774 5774 5774 5774 5774 5774 5774 5774 5774 5774 5774 5775 5775 5775 5775 5775 5775 5775 5776 5776 5776 5777 5777 5777 5777 5778 5778 5778 5778 5779 5778 5778 5779 5779 5779 5779 5780
5770 5770 5770 5770 5770 5770 5770 5770 5770 5769 5770 5770 5769 5769 5769 5769 5769 5769 5769 5769 5769 5769 5769 5769 5769 5769 5770 5770 5770 5770 5770 5770 5770 5771 5771 5771 5771 5772 5772 5772 5772 5772 5772 5773 5773 5773 5773 5773 5774 5774 5774 5775
5765 5765 5765 5765 5765 5765 5765 5765 5765 5764 5765 5765 5765 5764 5764 5764 5764 5764 5764 5764 5764 5764 5764 5764 5764 5764 5764 5764 5765 5765 5765 5765 5765 5765 5765 5766 5766 5766 5767 5767 5767 5767 5767 5767 5768 5768 5768 5768 5768 5769 5769 5770
5761 5760 5761 5761 5761 5761 5761 5760 5760 5759 5760 5760 5760 5759 5759 5759 5760 5760 5760 5759 5759 5759 5759 5759 5759 5759 5759 5759 5759 5759 5759 5759 5759 5759 5760 5760 5761 5761 5761 5762 5762 5762 5761 5761 5762 5762 5762 5762 5763 5763 5764 5764
5757 5756 5756 5756 5756 5756 5756 5756 5755 5755 5755 5756 5755 5755 5754 5755 5755 5755 5754 5754 5754 5753 5753 5753 5753 5753 5753 5753 5753 5753 5754 5754 5754 5754 5754 5754 5755 5755 5756 5756 5756 5756 5756 5756 5756 5756 5757 5757 5757 5758 5758 5759
5753 5752 5752 5752 5752 5752 5751 5751 5751 5751 5751 5751 5751 5750 5750 5750 5750 5749 5749 5748 5748 5748 5748 5748 5748 5748 5748 5748 5748 5748 5748 5748 5748 5748 5748 5749 5749 5750 5750 5750 5751 5751 5750 5750 5750 5751 5751 5751 5752 5752 5752 5753
5748 5747 5747 5747 5747 5747 5746 5746 5746 5746 5746 5746 5746 5745 5744 5744 5744 5744 5743 5743 5742 5742 5742 5742 5742 5742 5743 5743 5743 5743 5743 5742 5742 5743 5743 5743 5744 5744 5744 5744 5745 5745 5745 5745 5744 5745 5745 5745 5746 5746 5747 5747
5743 5743 5742 5742 5743 5742 5741 5741 5741 5741 5741 5741 5740 5739 5738 5738 5739 5738 5737 5737 5737 5737 5737 5737 5737 5737 5737 5737 5737 5737 5737 5737 5737 5737 5737 5737 5738 5738 5738 5738 5739 5739 5739 5739 5739 5739 5739 5740 5740 5741 5741 5741
5738 5737 5737 5737 5737 5737 5737 5736 5735 5735 5735 5735 5734 5733 5732 5733 5733 5732 5731 5731 5731 5731 5731 5731 5731 5731 5731 5731 5731 5731 5731 5731 5731 5731 5731 5731 5732 5732 5732 5732 5733 5733 5734 5734 5733 5733 5733 5734 5734 5735 5735 5735
5732 5732 5732 5732 5732 5732 5731 5731 5730 5730 5730 5729 5728 5727 5727 5727 5727 5726 5726 5725 5725 5725 5725 5725 5725 5725 5725 5725 5725 5725 5725 5725 5725 5725 5725 5725 5725 5726 5726 5726 5727 5727 5727 5728 5728 5727 5727 5727 5728 5728 5729 5729
5726 5727 5726 5726 5726 5726 5726 5725 5725 5724 5724 5724 5722 5721 5721 5721 5721 5720 5720 5720 5720 5719 5719 5719 5719 5719 5719 5719 5719 5719 5719 5719 5719 5719 5719 5719 5719 5720 5720 5720 5721 5721 5721 5721 5721 5722 5721 5720 5721 5722 5722 5722
5721 5721 5721 5721 5721 5720 5720 5720 5719 5719 5718 5718 5716 5715 5715 5715 5715 5715 5714 5714 5714 5713 5713 5713 5713 5713 5713 5713 5713 5713 5713 5712 5712 5713 5713 5713 5713 5713 5713 5714 5714 5714 5714 5715 5715 5715 5715 5714 5714 5714 5715 5716
5716 5716 5715 5715 5715 5714 5714 5714 5713 5712 5712 5711 5711 5710 5709 5709 5709 5709 5708 5708 5707 5707 5707 5707 5706 5706 5706 5706 5706 5706 5706 5706 5706 5706 5706 5706 5706 5707 5707 5707 5707 5707 5708 5708 5708 5708 5708 5708 5708 5708 5708 5709
5710 5710 5709 5709 5709 5708 5708 5708 5707 5706 5705 5705 5705 5704 5704 5703 5703 5702 5702 5701 5701 5701 5701 5700 5700 5700 5699 5699 5699 5699 5699 5699 5699 5699 5699 5700 5700 5700 5700 5700 5700 5701 5701 5701 5701 5701 5701 5701 5701 5701 5701 5701
5704 5703 5703 5703 5702 5702 5702 5701 5701 5700 5699 5699 5699 5698 5697 5697 5697 5696 5695 5695 5694 5694 5694 5694 5694 5693 5693 5693 5693 5692 5693 5692 5692 5693 5693 5693 5693 5693 5693 5693 5693 5693 5693 5694 5694 5694 5694 5694 5694 5694 5693 5694
5698 5697 5697 5696 5696 5695 5695 5695 5694 5693 5693 5692 5692 5691 5691 5691 5690 5689 5689 5688 5687 5688 5687 5687 5687 5687 5686 5687 5686 5686 5686 5686 5686 5686 5686 5686 5686 5686 5686 5686 5686 5686 5686 5686 5686 5687 5687 5687 5687 5687 5686 5686
5692 5691 5690 5690 5689 5689 5689 5688 5687 5686 5686 5686 5685 5684 5684 5684 5683 5683 5682 5681 5681 5681 5681 5681 5681 5681 5681 5680 5680 5680 5680 5680 5679 5679 5679 5679 5678 5678 5678 5678 5678 5678 5678 5678 5678 5679 5679 5679 5679 5679 5679 5679
5686 5685 5684 5684 5683 5683 5682 5681 5680 5680 5680 5679 5678 5677 5676 5676 5677 5676 5675 5674 5674 5674 5674 5674 5674 5675 5674 5674 5674 5673 5673 5673 5672 5671 5671 5671 5671 5671 5670 5670 5670 5670 5670 5670 5671 5671 5671 5671 5671 5671 5671 5672
5680 5679 5678 5677 5677 5676 5675 5675 5674 5674 5674 5673 5671 5670 5669 5669 5670 5670 5669 5668 5667 5667 5667 5667 5668 5668 5667 5666 5666 5666 5666 5666 5665 5664 5664 5663 5663 5663 5663 5662 5662 5661 5662 5662 5663 5663 5663 5663 5663 5663 5664 5664
5673 5673 5672 5671 5670 5669 5668 5668 5668 5667 5667 5666 5665 5664 5663 5662 5662 5662 5662 5661 5661 5661 5660 5660 5660 5659 5659 5658 5658 5658 5658 5657 5657 5656 5656 5656 5655 5656 5655 5655 5654 5654 5653 5654 5654 5654 5654 5654 5654 5655 5655 5655
5666 5666 5665 5664 5664 5663 5662 5661 5661 5660 5660 5660 5658 5657 5656 5655 5655 5655 5655 5654 5653 5653 5652 5652 5651 5651 5650 5650 5650 5650 5649 5649 5649 5649 5649 5648 5648 5648 5647 5646 5645 5645 5645 5645 5645 5645 5645 5645 5645 5646 5646 5646
5659 5659 5658 5658 5657 5656 5655 5654 5654 5653 5653 5652 5652 5650 5649 5648 5647 5647 5647 5646 5645 5644 5644 5644 5643 5643 5642 5642 5642 5641 5641 5641 5641 5641 5640 5639 5639 5639 5639 5638 5637 5636 5636 5637 5636 5635 5635 5636 5636 5636 5637 5638
5651 5651 5651 5651 5650 5649 5648 5647 5646 5646 5645 5645 5644 5643 5642 5640 5639 5638 5638 5638 5637 5637 5637 5637 5636 5636 5635 5634 5634 5633 5633 5633 5633 5633 5632 5631 5631 5630 5630 5629 5628 5628 5628 5628 5627 5626 5626 5628 5627 5627 5629 5629
5644 5644 5644 5643 5643 5642 5641 5640 5639 5638 5638 5637 5636 5635 5634 5633 5631 5631 5630 5630 5630 5629 5629 5629 5629 5628 5627 5626 5625 5625 5624 5624 5624 5624 5623 5622 5621 5621 5622 5621 5619 5619 5619 5620 5618 5616 5618 5618 5617 5619 5621 5620
5636 5636 5636 5636 5635 5634 5633 5632 5631 5630 5629 5628 5628 5627 5626 5625 5623 5623 5622 5621 5621 5621 5620 5620 5620 5619 5619 5618 5617 5616 5616 5615 5615 5614 5614 5613 5613 5612 5613 5612 5610 5609 5611 5611 5609 5608 5609 5609 5609 5611 5611 5610
5629 5629 5628 5628 5627 5626 5625 5624 5623 5622 5621 5620 5620 5619 5618 5616 5615 5614 5613 5613 5612 5612 5611 5611 5611 5610 5610 5609 5608 5607 5607 5607 5606 5605 5605 5604 5604 5604 5603 5602 5601 5601 5602 5601 5600 5599 5600 5599 5599 5601 5601 5599
5621 5621 5620 5619 5619 5618 5617 5616 5615 5613 5613 5612 5611 5611 5610 5608 5607 5606 5605 5604 5603 5602 5602 5601 5601 5601 5601 5600 5599 5599 5598 5598 5598 5596 5596 5595 5595 5595 5594 5593 5593 5593 5592 5590 5591 5590 5589 5589 5588 5589 5589 5589